Location: Izdebno
(52.6670°N, 16.2170°E)
Time: 06:39:53
(UTC+01:00)

Envisat - Pass Details

Date: 07 September 2025
Orbit: 761 x 762 km, 98.4° (Epoch: 08 December)

Event Time Altitude Azimuth Distance (km) Brightness Sun altitude
Rises 03:14:21 0° 19° (NNE) 3,240 7.4 -24.1°
Reaches altitude 10° 03:16:48 10° 27° (NNE) 2,310 6.5 -23.9°
Maximum altitude 03:21:36 40° 97° (E) 1,110 4.0 -23.4°
Enters shadow 03:24:07 24° 151° (SSE) 1,536 4.4 -23.2°
